Location: ??
(34.9170°N, 135.5016°E)
Time: 23:44:29
(UTC+00:00)

RS-15 - Pass Details

Date: 21 April 2021
Orbit: 1888 x 2157 km, 64.8° (Epoch: 12 May)

Event Time Altitude Azimuth Distance (km) Brightness Sun altitude
Rises 14:27:22 0° 317° (NW) 5,441 11.0 -42.5°
Reaches altitude 10° 14:33:54 10° 343° (NNW) 4,506 10.5 -42.7°
Maximum altitude 14:38:52 13° 9° (N) 4,291 10.3 -42.8°
Drops below altitude 10° 14:43:54 10° 35° (NE) 4,595 10.4 -42.9°
Sets 14:50:43 0° 61° (ENE) 5,644 10.7 -43.0°
